Location: Courcelles
(49.2596°N, 1.7419°E)
Time: 00:34:26
(UTC+00:00)

ISS - Pass Details

Date: 17 November 2025
Orbit: 416 x 421 km, 51.6° (Epoch: 05 December)

Event Time Altitude Azimuth Distance (km) Brightness Sun altitude
Rises 18:44:06 0° 261° (W) 2,365 1.4 -25.1°
Reaches altitude 10° 18:46:13 10° 264° (W) 1,501 0.1 -25.4°
Enters shadow 18:48:06 30° 273° (W) 778 -1.8 -25.7°
